Regional Weather Roundup
Issued by NWS

Home | Current Version | Previous Version | Graphics & Text | Print | Product List | Glossary On
Versions: 1 2 3 4 5 6 7 8 9 10 11 12 13 14 15 16 17 18 19 20 21 22 23 24 25 26 27 28 29 30 31 32 33 34 35 36 37 38 39 40 41 42 43 44 45 46 47 48 49 50
000
ASUS43 KFSD 220310
RWRSD

WEATHER ROUNDUP FOR SOUTH DAKOTA
NATIONAL WEATHER SERVICE SIOUX FALLS SD
900 PM CST WED FEB 21 2018

NOTE: "FAIR" INDICATES FEW OR NO CLOUDS BELOW 12,000 FEET WITH NO
SIGNIFICANT WEATHER AND/OR OBSTRUCTIONS TO VISIBILITY.


SDZ001>005-009-010-012>017-220400-
NORTHWEST AND NORTH CENTRAL SOUTH DAKOTA

CITY           SKY/WX    TMP DP  RH WIND       PRES   REMARKS
BUFFALO          N/A     -4 -10  75 SE9       30.12F WCI -20
FAITH            N/A     -7 -10  87 SE3       30.26S
MOBRIDGE       FAIR       4  -4  69 SE10      30.34F WCI -11
$$

SDZ012>016-024>037-041>051-057-063-072>074-220400-
SOUTHWEST AND SOUTH CENTRAL SOUTH DAKOTA

CITY           SKY/WX    TMP DP  RH WIND       PRES   REMARKS
RAPID CTY ARPT FAIR       9   0  67 S12       30.19S WCI  -6
PIERRE         FAIR      13   7  77 SE23      30.35F WCI  -6
CUSTER         FAIR      10  -3  55 W6        30.08S WCI   0
ELLSWORTH AFB  FAIR      10   1  67 SE6       30.18S WCI   0
PHILIP         FAIR       7   2  80 VRB6      30.29S WCI  -3
PINE RIDGE     FAIR      17   8  67 S3        30.25R
SPEARFISH        N/A     10  -2  56 S3        30.14S
WINNER         FAIR      19   7  59 S18G26    30.36F WCI   4
$$

SDZ004>011-016>023-039-040-220400-
NORTHEAST SOUTH DAKOTA

CITY           SKY/WX    TMP DP  RH WIND       PRES   REMARKS
ABERDEEN       FAIR      -2  -6  83 SE7       30.49F WCI -15
WATERTOWN      MOCLDY     7   0  73 S13       30.48F WCI  -9
BROOKINGS      MOCLDY    10   3  73 SE10      30.52F WCI  -4
SISSETON         N/A      0  -5  79 CALM      30.53S
$$

SDZ017-020-022-023-036>040-048>070-220400-
SOUTHEAST SOUTH DAKOTA

CITY           SKY/WX    TMP DP  RH WIND       PRES   REMARKS
SIOUX FALLS    CLOUDY    15   5  64 SE7       30.54F WCI   5
HURON          FAIR       9   2  73 SE13      30.49S WCI  -7
CHAMBERLAIN    FAIR      10   4  76 E12       30.43S WCI  -4
MITCHELL       MOCLDY    14   5  67 SE14      30.52S WCI  -1
YANKTON        CLOUDY    16   8  71 E5        30.54F WCI   9
$$

ABBREVIATIONS USED IN REMARKS
   TC - TEMPERATURE IN CELSIUS
  WCI - WIND CHILL INDEX
   HX - HEAT INDEX
  VSB - VISIBILITY




USA.gov is the U.S. government's official web portal to all federal, state and local government web resources and services.